GW6775 Weather Reports


Display with metric or nautical units.
time (UTC)temp
F
wind
direction
speed
MPH
gust
MPH
rain 1hr
in
rain 24hr
in
rain mn
in
humidity
%
barometer
mb
20260505124613 39 135 9.0 12.0 0.05 0.07 0.07 88 1014.3
20260505124109 39 108 6.0 14.0 0.05 0.07 0.07 89 1014.0
20260505123605 39 113 7.0 14.0 0.05 0.07 0.07 88 1014.1
20260505123102 39 113 10.0 15.0 0.02 0.06 0.06 88 1013.7
20260505122559 39 117 10.0 15.0 0.00 0.06 0.06 88 1013.9
20260505122056 40 122 9.0 13.0 0.02 0.06 0.06 88 1013.6
20260505121552 40 132 10.0 16.0 0.05 0.06 0.06 88 1013.6
20260505121049 41 124 8.0 14.0 0.05 0.06 0.06 89 1013.6
20260505120546 42 126 9.0 14.0 0.05 0.05 0.05 89 1013.4
20260505120041 43 125 9.0 12.0 0.05 0.05 0.05 90 1013.3
20260505115536 43 126 8.0 9.0 0.05 0.04 0.04 90 1013.0
20260505115034 43 129 6.0 9.0 0.07 0.04 0.04 90 1013.1
20260505114531 43 121 5.0 8.0 0.14 0.04 0.04 89 1013.3
20260505114027 43 127 6.0 9.0 0.12 0.03 0.03 88 1013.0
20260505113524 44 130 5.0 8.0 0.05 0.01 0.01 87 1013.0
20260505113020 44 126 6.0 9.0 0.02 0.01 0.01 87 1013.1
20260505112516 44 121 5.0 7.0 0.02 0.00 0.00 86 1013.0
20260505112014 44 118 4.0 6.0 0.02 0.00 0.00 86 1012.9
20260505111508 44 118 4.0 6.0 0.00 0.00 0.00 85 1012.9
20260505111004 44 112 5.0 6.0 0.00 0.00 0.00 85 1013.0
20260505110501 44 121 5.0 7.0 0.00 0.00 0.00 85 1012.9
20260505101933 46 131 5.0 11.0 0.00 0.00 0.00 86 1012.2
20260505101432 46 128 7.0 14.0 0.00 0.00 0.00 83 1012.1
20260505100928 46 120 5.0 6.0 0.00 0.00 0.00 82 1012.1
20260505100425 46 121 6.0 7.0 0.00 0.00 0.00 83 1012.1
20260505095921 47 131 6.0 7.0 0.00 0.00 0.00 84 1011.8
20260505095418 47 121 6.0 8.0 0.00 0.00 0.00 85 1011.7
20260505094914 47 118 5.0 6.0 0.00 0.00 0.00 85 1011.8
20260505094412 47 119 5.0 6.0 0.00 0.00 0.00 85 1012.1
20260505093907 47 126 5.0 5.0 0.00 0.00 0.00 85 1011.9
20260505093404 47 121 5.0 6.0 0.00 0.00 0.00 85 1012.1
20260505092902 47 122 5.0 6.0 0.00 0.00 0.00 86 1012.1
20260505092400 47 126 4.0 6.0 0.00 0.00 0.00 87 1012.3
20260505091857 47 120 4.0 5.0 0.00 0.00 0.00 87 1012.1
20260505091354 47 116 4.0 6.0 0.00 0.00 0.00 86 1012.1
20260505090852 47 117 4.0 6.0 0.00 0.00 0.00 86 1011.9
20260505090350 47 123 5.0 8.0 0.00 0.00 0.00 86 1011.9
20260505085847 48 114 5.0 7.0 0.00 0.00 0.00 85 1011.7
20260505085345 48 128 7.0 7.0 0.00 0.00 0.00 85 1011.8
20260505084843 48 122 4.0 6.0 0.00 0.00 0.00 85 1011.8
20260505084341 48 129 4.0 5.0 0.00 0.00 0.00 86 1011.9
20260505083838 48 122 4.0 4.0 0.00 0.00 0.00 86 1012.1
20260505083335 48 116 3.0 4.0 0.00 0.00 0.00 85 1011.9
20260505082832 48 128 4.0 5.0 0.00 0.00 0.00 85 1012.1
20260505082328 48 140 0.0 4.0 0.00 0.00 0.00 85 1011.9
20260505081825 48 113 0.0 4.0 0.00 0.00 0.00 85 1012.3
20260505081321 48 104 2.0 2.0 0.00 0.00 0.00 84 1012.3
20260505080818 48 103 0.0 4.0 0.00 0.00 0.00 84 1012.4
20260505080314 48 166 2.0 5.0 0.00 0.00 0.00 84 1012.2
20260505075810 48 250 1.0 4.0 0.00 0.00 0.00 85 1012.2
20260505075307 48 143 3.0 4.0 0.00 0.00 0.00 85 1012.1
20260505074804 48 263 1.0 2.0 0.00 0.00 0.00 85 1012.4
20260505074301 48 98 2.0 3.0 0.00 0.00 0.00 86 1012.7
20260505073759 48 126 2.0 3.0 0.00 0.00 0.00 87 1012.8
20260505073257 48 73 0.0 2.0 0.00 0.00 0.00 87 1012.8
20260505072753 48 125 3.0 3.0 0.00 0.00 0.00 87 1012.7
20260505072249 48 112 2.0 3.0 0.00 0.00 0.00 87 1012.8
20260505071745 48 124 3.0 4.0 0.00 0.00 0.00 88 1012.5
20260505071242 48 158 1.0 2.0 0.00 0.00 0.00 88 1012.9
20260505070739 48 326 1.0 3.0 0.00 0.00 0.00 88 1012.8
20260505070236 48 247 0.0 4.0 0.00 0.00 0.00 88 1013.1
20260505065731 48 168 1.0 2.0 0.00 0.00 0.00 89 1013.0
20260505065228 48 111 0.0 2.0 0.00 0.00 0.00 88 1013.1
20260505064725 48 117 3.0 3.0 0.00 0.00 0.00 88 1012.9
20260505064223 48 99 1.0 2.0 0.00 0.00 0.00 88 1013.3
20260505063720 48 149 1.0 3.0 0.00 0.00 0.00 88 1013.3
20260505063216 48 157 2.0 3.0 0.00 0.00 0.00 89 1013.4
20260505062713 48 228 1.0 3.0 0.00 0.00 0.00 89 1012.9
20260505062211 48 99 1.0 2.0 0.00 0.00 0.00 89 1013.3
20260505061707 48 114 2.0 2.0 0.00 0.00 0.00 88 1013.0
20260505061206 48 77 0.0 3.0 0.00 0.00 0.00 88 1013.1
20260505060702 48 122 3.0 3.0 0.00 0.00 0.00 88 1013.3
20260505060159 48 103 2.0 3.0 0.00 0.00 0.00 88 1013.3
20260505055654 48 128 3.0 3.0 0.00 0.09 0.09 89 1013.3
20260505055151 48 203 1.0 2.0 0.00 0.09 0.09 89 1013.0
20260505054649 48 158 0.0 3.0 0.00 0.09 0.09 89 1013.3
20260505054147 48 120 2.0 3.0 0.00 0.09 0.09 90 1013.0
20260505053644 48 113 2.0 3.0 0.02 0.09 0.09 89 1012.9
20260505053140 48 123 4.0 4.0 0.00 0.08 0.08 89 1013.1
20260505052638 48 127 4.0 4.0 0.00 0.08 0.08 89 1013.5
20260505052135 48 122 3.0 4.0 0.02 0.08 0.08 88 1013.1
20260505051631 48 119 3.0 4.0 0.07 0.08 0.08 88 1013.3
20260505051130 48 120 4.0 5.0 0.07 0.08 0.08 88 1013.6
20260505050627 48 128 3.0 5.0 0.02 0.07 0.07 88 1013.5
20260505050126 48 126 6.0 7.0 0.00 0.07 0.07 88 1013.5
20260505041555 48 128 8.0 10.0 0.05 0.04 0.04 86 1013.6
20260505041053 49 129 7.0 13.0 0.05 0.04 0.04 84 1013.9
20260505040550 49 127 5.0 14.0 0.07 0.04 0.04 83 1013.5
20260505040047 50 124 7.0 14.0 0.09 0.03 0.03 80 1013.4
20260505035543 51 126 6.0 10.0 0.07 0.02 0.02 77 1013.4
20260505035040 52 121 4.0 11.0 0.05 0.02 0.02 75 1013.5
20260505034536 52 127 4.0 11.0 0.07 0.01 0.01 70 1013.1
20260505034033 53 135 8.0 12.0 0.05 0.01 0.01 65 1013.4
20260505033530 53 128 5.0 8.0 0.00 0.00 0.00 62 1013.3
20260505033028 54 128 8.0 11.0 0.00 0.00 0.00 57 1012.9
20260505032525 55 133 7.0 12.0 0.00 0.00 0.00 54 1012.8
20260505032022 55 120 4.0 7.0 0.00 0.00 0.00 52 1012.5
20260505031519 55 132 8.0 9.0 0.00 0.00 0.00 51 1012.5
20260505031015 55 127 4.0 8.0 0.00 0.00 0.00 51 1012.5
20260505030512 55 134 2.0 4.0 0.00 0.00 0.00 50 1012.3
20260505030009 55 133 3.0 4.0 0.00 0.00 0.00 51 1012.3
20260505025504 55 142 2.0 2.0 0.00 0.00 0.00 51 1012.1
20260505025004 55 131 3.0 4.0 0.00 0.00 0.00 51 1012.1
20260505024500 55 178 0.0 3.0 0.00 0.00 0.00 51 1012.1
20260505023957 55 128 4.0 4.0 0.00 0.00 0.00 52 1012.2
20260505023454 55 135 2.0 5.0 0.00 0.00 0.00 51 1011.9
20260505022952 55 126 4.0 5.0 0.00 0.00 0.00 51 1011.8
20260505022449 55 126 4.0 6.0 0.00 0.00 0.00 50 1012.1
20260505021946 55 134 3.0 5.0 0.00 0.00 0.00 50 1011.9
20260505021442 56 130 4.0 6.0 0.00 0.00 0.00 49 1012.1
20260505020938 56 123 6.0 8.0 0.00 0.00 0.00 48 1011.9
20260505020433 56 129 8.0 9.0 0.00 0.00 0.00 48 1011.8
20260505015931 56 140 3.0 5.0 0.00 0.00 0.00 47 1011.7
20260505015428 56 127 4.0 5.0 0.00 0.00 0.00 48 1011.6
20260505014925 56 129 5.0 8.0 0.00 0.00 0.00 48 1011.7
20260505014422 56 129 6.0 8.0 0.00 0.00 0.00 47 1011.2
20260505013919 56 126 4.0 6.0 0.00 0.00 0.00 47 1011.2
20260505013416 56 130 3.0 6.0 0.00 0.00 0.00 48 1011.5
20260505012914 56 135 4.0 10.0 0.00 0.00 0.00 47 1011.7
20260505012412 56 133 6.0 9.0 0.00 0.00 0.00 49 1011.5
20260505011908 56 140 9.0 14.0 0.00 0.00 0.00 49 1011.4
20260505011404 57 136 7.0 16.0 0.00 0.00 0.00 48 1011.4
20260505010901 57 138 4.0 13.0 0.00 0.00 0.00 46 1011.4
20260505010357 58 117 9.0 14.0 0.00 0.00 0.00 43 1011.4
20260505005853 58 127 7.0 13.0 0.00 0.00 0.00 42 1011.1
20260505005349 59 123 6.0 17.0 0.00 0.00 0.00 41 1011.2
20260505004848 59 137 12.0 20.0 0.00 0.00 0.00 39 1011.5
20260505004343 60 127 13.0 14.0 0.00 0.00 0.00 38 1011.1
20260505003841 60 143 5.0 16.0 0.00 0.00 0.00 38 1010.9
20260505003338 60 125 10.0 14.0 0.00 0.00 0.00 36 1011.0
20260505002834 60 131 5.0 17.0 0.00 0.00 0.00 36 1010.9
20260505002331 61 134 9.0 12.0 0.00 0.00 0.00 35 1010.5
20260505001829 61 121 9.0 17.0 0.00 0.00 0.00 35 1011.0
20260505001326 61 127 9.0 10.0 0.00 0.00 0.00 34 1010.8
20260505000823 62 137 4.0 14.0 0.00 0.00 0.00 34 1010.6
20260505000321 62 130 11.0 13.0 0.00 0.00 0.00 33 1010.4
20260504235817 62 130 8.0 14.0 0.00 0.00 0.00 31 1010.4
20260504235314 63 140 8.0 13.0 0.00 0.00 0.00 30 1010.4
20260504234811 63 123 6.0 11.0 0.00 0.00 0.00 29 1010.3
20260504234309 63 126 7.0 12.0 0.00 0.00 0.00 29 1010.3
20260504233805 63 125 9.0 11.0 0.00 0.00 0.00 29 1010.3
20260504233301 64 128 8.0 14.0 0.00 0.00 0.00 29 1010.2
20260504232758 64 134 7.0 16.0 0.00 0.00 0.00 29 1009.8
20260504232255 64 128 7.0 14.0 0.00 0.00 0.00 29 1009.8
20260504231752 64 123 9.0 11.0 0.00 0.00 0.00 29 1009.9
20260504231248 64 124 7.0 15.0 0.00 0.00 0.00 29 1009.6
20260504230744 64 124 12.0 17.0 0.00 0.00 0.00 28 1009.5
20260504230243 65 132 6.0 12.0 0.00 0.00 0.00 28 1009.5
20260504225741 65 121 6.0 13.0 0.00 0.00 0.00 27 1009.3
20260504225237 65 132 7.0 15.0 0.00 0.00 0.00 27 1009.2
20260504224734 65 131 7.0 15.0 0.00 0.00 0.00 27 1009.6
20260504224231 65 134 8.0 14.0 0.00 0.00 0.00 27 1009.5
20260504223728 66 139 10.0 17.0 0.00 0.00 0.00 27 1009.5
20260504223223 66 128 11.0 18.0 0.00 0.00 0.00 26 1009.2
20260504222720 66 118 9.0 19.0 0.00 0.00 0.00 26 1009.1
20260504222217 66 137 9.0 19.0 0.00 0.00 0.00 26 1009.5
20260504221715 68 130 13.0 14.0 0.00 0.00 0.00 23 1009.5
20260504221212 68 131 9.0 14.0 0.00 0.00 0.00 22 1009.2
20260504220708 68 134 11.0 13.0 0.00 0.00 0.00 22 1008.9
20260504220206 68 134 5.0 9.0 0.00 0.00 0.00 21 1009.0
20260504215702 69 136 5.0 12.0 0.00 0.00 0.00 21 1008.9
20260504215159 70 128 7.0 12.0 0.00 0.00 0.00 20 1008.7
20260504214655 70 133 8.0 13.0 0.00 0.00 0.00 20 1008.9
20260504214151 70 121 8.0 10.0 0.00 0.00 0.00 20 1009.0
20260504213648 70 142 14.0 19.0 0.00 0.00 0.00 20 1008.7
20260504213145 69 128 13.0 17.0 0.00 0.00 0.00 20 1008.9
20260504212641 71 126 10.0 15.0 0.00 0.00 0.00 20 1009.2
20260504212138 71 132 7.0 13.0 0.00 0.00 0.00 19 1009.2
20260504211636 70 143 5.0 10.0 0.00 0.00 0.00 20 1009.2
20260504211132 70 131 7.0 9.0 0.00 0.00 0.00 21 1009.3
20260504210630 69 134 6.0 13.0 0.00 0.00 0.00 21 1009.3
20260504210126 69 129 13.0 17.0 0.00 0.00 0.00 21 1009.2
20260504205624 69 155 3.0 15.0 0.00 0.00 0.00 21 1009.5
20260504205121 70 127 9.0 13.0 0.00 0.00 0.00 21 1009.5
20260504204619 70 130 11.0 14.0 0.00 0.00 0.00 21 1009.3
20260504204118 71 135 9.0 15.0 0.00 0.00 0.00 21 1009.7
20260504203616 69 130 6.0 15.0 0.00 0.00 0.00 21 1009.5
20260504203113 69 128 9.0 11.0 0.00 0.00 0.00 22 1009.8
20260504202608 69 139 13.0 17.0 0.00 0.00 0.00 22 1009.6
20260504202105 68 162 3.0 17.0 0.00 0.00 0.00 23 1009.9
20260504201602 68 140 10.0 19.0 0.00 0.00 0.00 22 1009.8
20260504201100 69 129 15.0 16.0 0.00 0.00 0.00 22 1009.9
20260504200556 69 130 13.0 17.0 0.00 0.00 0.00 22 1009.7
20260504200053 69 132 13.0 15.0 0.00 0.00 0.00 22 1009.7
20260504195549 70 135 8.0 12.0 0.00 0.00 0.00 22 1009.6
20260504195046 69 133 7.0 19.0 0.00 0.00 0.00 22 1009.7
20260504194543 69 121 7.0 10.0 0.00 0.00 0.00 21 1009.6
20260504194038 69 141 5.0 15.0 0.00 0.00 0.00 22 1009.8
20260504193535 69 142 9.0 15.0 0.00 0.00 0.00 22 1009.9
20260504193034 69 130 5.0 13.0 0.00 0.00 0.00 22 1009.9
20260504192531 69 126 7.0 11.0 0.00 0.00 0.00 22 1009.9
20260504192029 68 137 7.0 13.0 0.00 0.00 0.00 21 1009.9
20260504191527 68 133 10.0 14.0 0.00 0.00 0.00 22 1009.8
20260504191023 67 128 7.0 17.0 0.00 0.00 0.00 23 1009.3
20260504190519 67 135 5.0 13.0 0.00 0.00 0.00 22 1009.7
20260504190015 66 116 9.0 17.0 0.00 0.00 0.00 22 1009.9
20260504185512 66 139 4.0 9.0 0.00 0.00 0.00 22 1009.8
20260504185009 65 140 6.0 14.0 0.00 0.00 0.00 23 1009.9
20260504184510 66 176 6.0 13.0 0.00 0.00 0.00 23 1010.2
20260504184006 66 144 2.0 5.0 0.00 0.00 0.00 20 1010.2
20260504183503 66 133 9.0 13.0 0.00 0.00 0.00 21 1010.4
20260504183000 66 124 7.0 27.0 0.00 0.00 0.00 21 1010.4
20260504182457 68 129 13.0 15.0 0.00 0.00 0.00 20 1009.8
20260504181955 68 135 5.0 7.0 0.00 0.00 0.00 20 1009.8
20260504181451 69 134 7.0 9.0 0.00 0.00 0.00 20 1009.9
20260504180950 69 136 6.0 7.0 0.00 0.00 0.00 20 1009.9
20260504180449 69 135 4.0 6.0 0.00 0.00 0.00 19 1009.8
20260504175947 69 128 5.0 10.0 0.00 0.00 0.00 19 1010.2
20260504175443 69 141 5.0 11.0 0.00 0.00 0.00 19 1010.0
20260504174941 69 131 8.0 12.0 0.00 0.00 0.00 19 1009.9
20260504174438 69 134 7.0 14.0 0.00 0.00 0.00 19 1010.0
20260504173936 70 134 5.0 14.0 0.00 0.00 0.00 19 1010.2
20260504173432 69 144 4.0 7.0 0.00 0.00 0.00 19 1010.4
20260504172930 69 228 2.0 5.0 0.00 0.00 0.00 19 1010.4
20260504172425 69 224 5.0 9.0 0.00 0.00 0.00 20 1010.5
20260504171922 69 137 6.0 11.0 0.00 0.00 0.00 20 1010.5
20260504171419 68 19 1.0 6.0 0.00 0.00 0.00 20 1010.5
20260504170916 68 138 6.0 10.0 0.00 0.00 0.00 20 1010.6
20260504170413 68 146 12.0 13.0 0.00 0.00 0.00 21 1010.5
20260504160331 65 118 3.0 9.0 0.00 0.00 0.00 22 1011.4
20260504150756 62 105 3.0 9.0 0.00 0.00 0.00 24 1011.5
20260504150253 62 198 4.0 8.0 0.00 0.00 0.00 25 1011.7
20260504141223 53 119 4.0 5.0 0.00 0.00 0.00 42 1011.7
20260504140719 52 138 2.0 4.0 0.00 0.00 0.00 43 1011.6
20260504140214 51 127 3.0 4.0 0.00 0.00 0.00 44 1011.5
20260504130643 46 249 2.0 4.0 0.00 0.00 0.00 50 1011.5
20260504130140 46 123 3.0 5.0 0.00 0.00 0.00 50 1011.2